Stations météo

Publicité
Tenerife/Los Rodeos, Espagne (60015): Température de l'air & dewpoint: 15.01.2018 03:00:00 - 21.01.2018 03:00:00 (WET)Tenerife/Los Rodeos, Espagne (60015): Vitesse du vent: 15.01.2018 03:00:00 - 21.01.2018 03:00:00 (WET)Tenerife/Los Rodeos, Espagne (60015): Direction du vent: 15.01.2018 03:00:00 - 21.01.2018 03:00:00 (WET)Tenerife/Los Rodeos, Espagne (60015): reduced air pressure: 15.01.2018 03:00:00 - 21.01.2018 03:00:00 (WET)Tenerife/Los Rodeos, Espagne (60015): visibility: 15.01.2018 03:00:00 - 21.01.2018 03:00:00 (WET)
Date & Time tt [°C] td [°C] ff [km/h] ff [knt] dd ppp [hPa] vv [km]
21.01.2018 03:00:00 - - - - - - -
21.01.2018 02:00:00 12,2 11,7 11 6 SE 1028,2 9
21.01.2018 01:00:00 12,4 12,1 15 8 ESE 1028,6 4,4
21.01.2018 00:00:00 12,5 12,0 15 8 ESE 1028,7 7
20.01.2018 23:00:00 12,6 12,1 18 10 ESE 1029,0 7
20.01.2018 22:00:00 12,3 11,2 16 9 ESE 1028,6 10
20.01.2018 21:00:00 12,6 12,0 22 12 ESE 1027,9 9
20.01.2018 20:00:00 12,8 11,2 21 11 SE 1027,6 10
20.01.2018 19:00:00 13,1 11,2 16 9 SE 1027,2 10
20.01.2018 18:00:00 13,2 10,4 16 9 ESE 1026,8 10
20.01.2018 17:00:00 14,4 10,6 16 9 ESE 1026,3 10
20.01.2018 16:00:00 14,4 11,9 16 9 ESE 1026,0 20
20.01.2018 15:00:00 14,5 11,8 15 8 ESE 1026,2 10
20.01.2018 14:00:00 14,5 11,7 15 8 SE 1026,4 10
20.01.2018 13:00:00 14,5 11,0 21 11 ESE 1027,7 10
20.01.2018 12:00:00 14,2 11,6 15 8 ESE 1028,6 10
20.01.2018 11:00:00 13,7 11,7 13 7 E 1028,9 10
20.01.2018 10:00:00 12,6 11,4 5 3 SE 1028,7 10
20.01.2018 09:00:00 12,5 11,1 8 4 E 1027,9 10
20.01.2018 08:00:00 12,5 12,0 0 0 N 1027,2 26
20.01.2018 07:00:00 12,3 11,7 11 6 W 1026,6 6
20.01.2018 06:00:00 12,3 11,5 9 5 WNW 1026,4 7
20.01.2018 05:00:00 12,2 11,1 13 7 NNW 1026,2 10
20.01.2018 04:00:00 12,4 11,5 24 13 WNW 1026,1 8
20.01.2018 03:00:00 12,5 10,6 21 11 WNW 1026,7 10
20.01.2018 02:00:00 12,7 11,3 21 11 WNW 1026,7 10
20.01.2018 01:00:00 12,8 10,1 16 9 W 1026,8 10
20.01.2018 00:00:00 12,5 10,0 21 11 NW 1027,8 10
19.01.2018 23:00:00 12,7 9,5 21 11 NW 1028,1 10
19.01.2018 22:00:00 12,8 9,8 26 14 NW 1027,5 26
19.01.2018 21:00:00 12,6 10,1 28 15 NW 1027,3 27
19.01.2018 20:00:00 12,7 11,1 34 18 NW 1026,3 10
19.01.2018 19:00:00 12,5 9,5 24 13 NW 1026,1 10
19.01.2018 18:00:00 13,1 10,6 29 16 NW 1025,6 10
19.01.2018 17:00:00 13,4 10,1 35 19 NW 1025,1 10
19.01.2018 16:00:00 14,6 10,3 35 19 NW 1024,5 10
19.01.2018 15:00:00 14,7 11,9 39 21 NW 1024,3 10
19.01.2018 14:00:00 14,4 10,8 37 20 NW 1025,0 10
19.01.2018 13:00:00 14,8 10,7 34 18 NNW 1025,6 10
19.01.2018 12:00:00 14,7 9,3 39 21 NW 1025,9 10
19.01.2018 11:00:00 14,3 10,9 39 21 NW 1025,7 12
19.01.2018 10:00:00 13,6 10,0 34 18 NNW 1025,8 9
19.01.2018 09:00:00 12,5 10,7 31 17 NW 1025,5 9
19.01.2018 08:00:00 11,9 9,7 29 16 NW 1025,3 9
19.01.2018 07:00:00 12,0 10,6 29 16 NW 1024,5 9
19.01.2018 06:00:00 12,1 10,1 34 18 WNW 1024,0 10
19.01.2018 05:00:00 11,8 10,2 42 23 NW 1023,4 10
19.01.2018 04:00:00 11,9 10,3 48 26 NW 1023,2 10
19.01.2018 03:00:00 11,7 9,8 48 26 WNW 1023,2 10
19.01.2018 02:00:00 11,8 10,5 44 24 NW 1023,6 10
19.01.2018 01:00:00 11,8 9,8 42 23 NW 1024,2 7
19.01.2018 00:00:00 11,5 10,5 42 23 WNW 1024,7 10
18.01.2018 23:00:00 11,9 9,9 42 23 WNW 1024,4 10
18.01.2018 22:00:00 11,9 10,0 44 24 WNW 1024,0 10
18.01.2018 21:00:00 12,0 8,6 41 22 NW 1023,4 10
18.01.2018 20:00:00 12,1 8,6 46 25 WNW 1023,0 10
18.01.2018 19:00:00 11,9 10,5 42 23 NW 1022,7 9
18.01.2018 18:00:00 12,0 11,1 41 22 NW 1022,9 8
18.01.2018 17:00:00 12,3 11,6 42 23 NW 1022,6 3,0
18.01.2018 16:00:00 13,0 12,2 42 23 NW 1022,5 6
18.01.2018 15:00:00 13,7 12,7 39 21 NW 1022,0 5
18.01.2018 14:00:00 14,5 12,4 44 24 WNW 1021,9 10
18.01.2018 13:00:00 13,8 12,0 44 24 WNW 1022,9 8
18.01.2018 12:00:00 14,5 12,2 41 22 WNW 1023,2 10
18.01.2018 11:00:00 12,8 11,7 37 20 NW 1023,9 8
18.01.2018 10:00:00 13,3 9,9 35 19 NW 1023,1 10
18.01.2018 09:00:00 12,5 10,7 31 17 NW 1022,8 10
18.01.2018 08:00:00 11,9 9,5 34 18 NNW 1022,3 10
18.01.2018 07:00:00 12,2 11,7 34 18 NW 1021,6 10
18.01.2018 06:00:00 12,1 11,8 34 18 NW 1021,6 8
18.01.2018 05:00:00 12,1 11,3 29 16 NW 1021,8 7
18.01.2018 04:00:00 12,8 12,2 31 17 WNW 1021,9 10
18.01.2018 03:00:00 12,9 12,3 34 18 NW 1022,1 10
18.01.2018 02:00:00 12,9 12,1 29 16 NW 1022,4 9
18.01.2018 01:00:00 12,8 12,4 28 15 WNW 1023,1 10
18.01.2018 00:00:00 12,6 12,3 22 12 NW 1023,8 8
17.01.2018 23:00:00 12,7 12,4 21 11 NW 1024,0 3,0
17.01.2018 22:00:00 11,8 11,2 26 14 NW 1024,2 3,0
17.01.2018 21:00:00 12,9 10,4 26 14 W 1023,2 10
17.01.2018 20:00:00 12,8 11,9 35 19 WNW 1023,4 10
17.01.2018 19:00:00 12,7 11,7 35 19 NW 1022,7 10
17.01.2018 18:00:00 12,9 11,3 31 17 NW 1023,1 10
17.01.2018 17:00:00 13,0 11,4 39 21 NW 1022,6 10
17.01.2018 16:00:00 13,5 11,6 35 19 NW 1022,7 10
17.01.2018 15:00:00 13,3 11,2 35 19 NW 1023,2 10
17.01.2018 14:00:00 14,3 11,4 37 20 NW 1023,4 10
17.01.2018 13:00:00 13,8 11,3 34 18 NW 1024,3 10
17.01.2018 12:00:00 13,8 11,2 31 17 NW 1025,2 10
17.01.2018 11:00:00 13,9 11,1 29 16 NW 1025,6 10
17.01.2018 10:00:00 13,6 11,1 31 17 NW 1025,3 10
17.01.2018 09:00:00 12,8 11,0 34 18 NW 1025,1 10
17.01.2018 08:00:00 12,2 11,0 31 17 WNW 1025,0 10
17.01.2018 07:00:00 12,2 10,9 37 20 WNW 1024,6 10
17.01.2018 06:00:00 12,1 11,0 39 21 NW 1024,3 10
17.01.2018 05:00:00 12,1 11,1 39 21 NW 1024,5 10
17.01.2018 04:00:00 11,8 10,9 35 19 NW 1024,9 10
17.01.2018 03:00:00 11,6 10,5 35 19 NW 1025,1 10
17.01.2018 02:00:00 11,8 10,4 35 19 NW 1025,5 10
17.01.2018 01:00:00 11,8 9,9 24 13 NW 1025,8 10
17.01.2018 00:00:00 12,0 9,9 26 14 NW 1026,2 10
16.01.2018 23:00:00 11,8 9,2 26 14 NW 1026,2 10
16.01.2018 22:00:00 12,1 9,5 26 14 WNW 1026,1 10
16.01.2018 21:00:00 12,0 9,7 16 9 NW 1026,0 10
16.01.2018 20:00:00 11,9 9,5 22 12 NW 1025,8 10
16.01.2018 19:00:00 11,9 10,3 29 16 NW 1025,1 8
16.01.2018 18:00:00 12,3 9,7 26 14 NW 1024,7 10
16.01.2018 17:00:00 13,2 9,2 22 12 NNW 1024,7 10
16.01.2018 16:00:00 13,1 9,2 16 9 N 1024,8 10
16.01.2018 15:00:00 12,7 9,9 22 12 NNW 1024,9 10
16.01.2018 14:00:00 13,9 9,4 18 10 N 1024,9 10
16.01.2018 13:00:00 12,2 8,9 16 9 NNE 1026,3 15
16.01.2018 12:00:00 12,3 7,9 18 10 NNE 1027,3 10
16.01.2018 11:00:00 12,8 8,2 16 9 N 1027,6 10
16.01.2018 10:00:00 12,0 7,8 13 7 NNW 1027,6 10
16.01.2018 09:00:00 11,5 7,8 22 12 N 1027,1 10
16.01.2018 08:00:00 10,9 7,2 26 14 N 1026,8 10
16.01.2018 07:00:00 11,2 6,9 28 15 NW 1026,0 10
16.01.2018 06:00:00 11,6 7,7 37 20 NW 1025,5 10
16.01.2018 05:00:00 11,5 7,6 34 18 NW 1025,8 10
16.01.2018 04:00:00 11,6 7,1 34 18 NW 1025,7 10
16.01.2018 03:00:00 11,5 7,4 34 18 NNW 1025,6 10
16.01.2018 02:00:00 11,6 7,6 35 19 NW 1026,2 10
16.01.2018 01:00:00 11,6 8,1 29 16 NW 1026,7 10
16.01.2018 00:00:00 11,2 6,9 28 15 NW 1027,7 10
15.01.2018 23:00:00 11,2 6,6 24 13 NW 1027,7 10
15.01.2018 22:00:00 11,4 8,1 26 14 NW 1027,2 10
15.01.2018 21:00:00 11,0 7,6 22 12 NW 1027,1 10
15.01.2018 20:00:00 10,9 6,9 18 10 NW 1027,0 10
15.01.2018 19:00:00 10,9 6,9 21 11 NW 1026,5 10
15.01.2018 18:00:00 11,5 7,8 21 11 NNW 1026,0 10
15.01.2018 17:00:00 12,3 9,9 18 10 NNW 1025,4 10
15.01.2018 16:00:00 12,3 10,7 16 9 N 1024,9 10
15.01.2018 15:00:00 12,1 11,3 21 11 N 1024,9 10
15.01.2018 14:00:00 12,6 11,8 22 12 N 1025,1 10
15.01.2018 13:00:00 12,2 11,8 31 17 NNW 1025,3 0,3
15.01.2018 12:00:00 12,1 11,2 37 20 NW 1026,2 10
15.01.2018 11:00:00 12,5 10,2 37 20 NW 1026,3 10
15.01.2018 10:00:00 12,5 10,0 35 19 WNW 1026,2 10
15.01.2018 09:00:00 12,1 10,0 37 20 NW 1025,6 10
15.01.2018 08:00:00 11,6 10,2 37 20 NW 1024,8 10
15.01.2018 07:00:00 11,6 10,2 37 20 NW 1024,3 10
15.01.2018 06:00:00 11,3 10,4 34 18 NW 1024,3 9
15.01.2018 05:00:00 11,4 9,8 37 20 NW 1024,4 10
15.01.2018 04:00:00 11,4 9,8 34 18 NW 1024,7 10
15.01.2018 03:00:00 11,2 8,6 31 17 NNW 1025,7 10

tt = Température de l'air
td = dewpoint
ff = Vitesse du vent
dd = Direction du vent
ppp = reduced air pressure
vv = visibility

stations d'obs. à proximité